Regional Weather Roundup
Issued by NWS

Home | Current Version | Previous Version | Text Only | Print | Product List | Glossary Off
Versions: 1 2 3 4 5 6 7 8 9 10 11 12 13 14 15 16 17 18 19 20 21 22 23 24 25 26 27 28 29 30 31 32 33 34 35 36 37 38 39 40 41 42 43 44 45 46 47 48 49 50

000
ASUS43 KFSD 061410
RWRSD

WEATHER ROUNDUP FOR SOUTH DAKOTA
NATIONAL WEATHER SERVICE SIOUX FALLS SD
900 AM CDT FRI MAY 06 2016

NOTE: "FAIR" INDICATES FEW OR NO CLOUDS BELOW 12,000 FEET WITH NO
SIGNIFICANT WEATHER AND/OR OBSTRUCTIONS TO VISIBILITY.


SDZ001>005-009-010-012>017-061500-
NORTHWEST AND NORTH CENTRAL SOUTH DAKOTA

CITY           SKY/WX    TMP DP  RH WIND       PRES   REMARKS
BUFFALO          N/A     66  42  41 N16       29.88R
FAITH            N/A     65  51  60 N8        29.86R
$$

SDZ012>016-024>037-041>051-057-063-072>074-061500-
SOUTHWEST AND SOUTH CENTRAL SOUTH DAKOTA

CITY           SKY/WX    TMP DP  RH WIND       PRES   REMARKS
RAPID CTY ARPT SUNNY     69  48  47 N5        29.90R
PIERRE         SUNNY     66  52  60 SW5       29.83
CUSTER         CLOUDY    68  39  34 NE3       30.03R
ELLSWORTH AFB  SUNNY     67  46  45 CALM      29.90R
PHILIP         SUNNY     62  51  67 SW5       29.85S
PINE RIDGE     CLOUDY    64  47  53 S16       29.92S
WINNER         FAIR      70  51  51 SW20G26   29.87
$$

SDZ004>011-016>023-039-040-061500-
NORTHEAST SOUTH DAKOTA

CITY           SKY/WX    TMP DP  RH WIND       PRES   REMARKS
ABERDEEN       SUNNY     67  52  58 W8        29.79
WATERTOWN      SUNNY     70  51  51 SW17      29.82
BROOKINGS      SUNNY     70  49  47 SW17G23   29.86
SISSETON         N/A     70  51  51 W12       29.75S
$$

SDZ017-020-022-023-036>040-048>070-061500-
SOUTHEAST SOUTH DAKOTA

CITY           SKY/WX    TMP DP  RH WIND       PRES   REMARKS
SIOUX FALLS    MOSUNNY   66  48  52 SW9G17    29.90S
HURON          SUNNY     70  54  56 SW9       29.83R
CHAMBERLAIN    SUNNY     69  55  60 SW12      29.87S
MITCHELL       SUNNY     71  51  49 SW13      29.88
YANKTON        MOSUNNY   68  45  42 SW16      29.91
$$

ABBREVIATIONS USED IN REMARKS
   TC - TEMPERATURE IN CELSIUS
  WCI - WIND CHILL INDEX
   HX - HEAT INDEX
  VSB - VISIBILITY




USA.gov is the U.S. government's official web portal to all federal, state and local government web resources and services.